KI5RAB Weather Reports


time (UTC)temp
F
wind
direction
speed
knots
gust
knots
rain 1hr
in
rain 24hr
in
rain mn
in
humidity
%
barometer
mb
20260506191358 86 348 1.7 1.7 0.00 0.00 0.00 69 1013.0
20260506190855 85 46 1.7 2.6 0.00 0.00 0.00 70 1013.2
20260506190352 83 310 0.0 0.9 0.00 0.00 0.00 73 1013.1
20260506185849 84 4 0.9 0.9 0.00 0.00 0.00 71 1013.1
20260506185346 85 344 3.5 5.2 0.00 0.00 0.00 69 1013.3
20260506184843 84 3 1.7 1.7 0.00 0.00 0.00 70 1013.2
20260506184340 84 242 0.9 1.7 0.00 0.00 0.00 74 1013.3
20260506183837 84 341 0.9 1.7 0.00 0.00 0.00 75 1013.4
20260506183332 84 316 0.0 0.9 0.00 0.00 0.00 74 1013.6
20260506182830 82 332 0.9 1.7 0.00 0.00 0.00 76 1013.5
20260506182327 82 359 3.5 3.5 0.00 0.00 0.00 77 1013.6
20260506181825 82 24 1.7 3.5 0.00 0.00 0.00 78 1013.6
20260506181322 80 321 0.9 0.9 0.00 0.00 0.00 81 1013.7
20260506180819 80 58 0.9 1.7 0.00 0.00 0.00 81 1013.8
20260506180315 80 357 0.0 0.9 0.00 0.00 0.00 81 1013.9
20260506175812 80 24 3.5 5.2 0.00 0.00 0.00 82 1014.0
20260506175308 80 339 2.6 2.6 0.00 0.00 0.00 82 1013.9
20260506174806 80 340 0.0 0.9 0.00 0.00 0.00 81 1014.1
20260506174303 79 23 0.9 0.9 0.00 0.00 0.00 82 1014.2
20260506173800 79 17 1.7 1.7 0.00 0.00 0.00 81 1014.1
20260506173257 79 351 0.0 0.9 0.00 0.00 0.00 82 1013.9
20260506172754 79 344 0.0 0.0 0.00 0.00 0.00 82 1014.0
20260506172250 79 337 0.0 0.9 0.00 0.00 0.00 82 1014.0
20260506171748 79 14 1.7 1.7 0.00 0.00 0.00 82 1014.2
20260506171245 79 334 0.0 0.0 0.00 0.00 0.00 83 1014.3
20260506170743 78 326 0.9 0.9 0.00 0.00 0.00 84 1014.1
20260506170239 78 329 0.0 0.9 0.00 0.00 0.00 84 1014.2
20260506165738 78 48 0.9 2.6 0.00 0.00 0.00 83 1014.2
20260506165234 79 344 0.9 0.9 0.00 0.00 0.00 82 1014.2
20260506164732 79 320 0.0 0.9 0.00 0.00 0.00 81 1014.1
20260506164228 79 13 0.9 0.9 0.00 0.00 0.00 83 1014.2
20260506163725 79 335 1.7 1.7 0.00 0.00 0.00 83 1013.9
20260506163220 78 60 0.9 0.9 0.00 0.00 0.00 84 1014.2
20260506162716 79 13 1.7 1.7 0.00 0.00 0.00 85 1014.1
20260506162214 78 4 0.0 0.9 0.00 0.00 0.00 84 1014.1
20260506161711 78 316 0.9 0.9 0.00 0.00 0.00 85 1014.0
20260506161208 79 335 0.0 0.9 0.00 0.00 0.00 84 1014.1
20260506160706 79 34 2.6 2.6 0.00 0.00 0.00 84 1013.9
20260506160202 78 333 0.9 0.9 0.00 0.00 0.00 86 1013.8
20260506155701 78 341 0.9 1.7 0.00 0.00 0.00 86 1013.8
20260506155157 77 11 0.0 0.0 0.00 0.00 0.00 87 1013.9
20260506153259 76 1 1.7 1.7 0.00 0.00 0.00 90 1013.8
20260506152756 76 333 0.0 0.9 0.00 0.00 0.00 91 1013.5
20260506152254 76 359 0.9 1.7 0.00 0.00 0.00 90 1013.5
20260506151753 76 15 0.0 0.9 0.00 0.00 0.00 91 1013.4
20260506151249 76 13 0.9 0.9 0.00 0.00 0.00 91 1013.4
20260506150745 76 328 0.9 0.9 0.00 0.00 0.00 91 1013.3
20260506150243 76 327 0.0 0.0 0.00 0.00 0.00 92 1013.2
20260506145739 76 320 0.0 0.0 0.00 0.00 0.00 92 1013.2
20260506145236 75 323 0.0 0.0 0.00 0.00 0.00 92 1013.4
20260506144733 75 318 0.0 0.0 0.00 0.00 0.00 92 1013.2
20260506144230 75 321 0.0 0.0 0.00 0.00 0.00 92 1013.3
20260506143728 75 330 0.0 0.9 0.00 0.00 0.00 92 1013.1
20260506143225 75 344 0.9 0.9 0.00 0.00 0.00 92 1013.1
20260506142724 75 328 0.0 0.9 0.00 0.00 0.00 92 1012.7
20260506142221 75 331 0.0 0.0 0.00 0.00 0.00 92 1012.7
20260506141719 76 348 0.0 0.0 0.00 0.00 0.00 91 1012.8
20260506141217 75 322 0.0 0.0 0.00 0.00 0.00 91 1012.7
20260506140714 75 320 0.0 0.0 0.00 0.00 0.00 91 1012.8
20260506140211 76 327 0.0 0.0 0.00 0.00 0.00 91 1012.3
20260506135708 76 317 0.0 0.0 0.00 0.00 0.00 91 1012.4
20260506135204 75 324 0.0 0.0 0.00 0.00 0.00 91 1012.3
20260506134701 75 317 0.0 0.0 0.00 0.00 0.00 91 1012.1
20260506134157 75 323 0.0 0.0 0.00 0.00 0.00 90 1011.9
20260506133655 75 324 0.0 0.9 0.00 0.00 0.00 90 1012.1
20260506133151 75 108 1.7 2.6 0.00 0.00 0.00 91 1012.2
20260506132649 75 315 0.0 0.0 0.00 0.00 0.00 91 1012.0
20260506132145 75 326 0.0 0.0 0.00 0.00 0.00 91 1011.9
20260506131643 75 293 0.9 1.7 0.00 0.00 0.00 91 1011.8
20260506131139 75 11 0.9 1.7 0.00 0.00 0.00 91 1011.8
20260506130636 75 357 0.0 0.0 0.00 0.00 0.00 91 1011.5
20260506130133 75 298 0.0 0.0 0.00 0.00 0.00 91 1011.8
20260506125632 75 320 0.0 0.0 0.00 0.00 0.00 91 1011.6
20260506125129 75 328 0.0 0.0 0.00 0.00 0.00 91 1011.5
20260506124627 75 123 1.7 2.6 0.00 0.00 0.00 91 1011.5
20260506124124 75 343 0.0 0.0 0.00 0.00 0.00 91 1011.5
20260506123622 75 329 0.0 0.9 0.00 0.00 0.00 91 1011.9
20260506123120 75 359 0.9 0.9 0.00 0.00 0.00 91 1011.6
20260506122616 75 348 0.0 0.0 0.00 0.00 0.00 91 1011.7
20260506122114 75 51 1.7 2.6 0.00 0.00 0.00 91 1011.7
20260506121612 75 12 0.0 0.9 0.00 0.00 0.00 92 1011.7
20260506121108 75 339 0.0 0.9 0.00 0.00 0.00 92 1011.7
20260506120606 75 321 0.0 0.0 0.00 0.00 0.00 92 1011.5
20260506115601 75 7 0.9 1.7 0.00 0.00 0.00 92 1011.5
20260506115059 75 327 0.0 0.0 0.00 0.00 0.00 91 1011.7
20260506114556 75 337 0.0 0.0 0.00 0.00 0.00 91 1011.7
20260506114054 75 326 0.9 1.7 0.00 0.00 0.00 91 1011.3
20260506113552 75 326 0.0 0.0 0.00 0.00 0.00 91 1011.2
20260506113049 75 319 0.0 0.0 0.00 0.00 0.00 91 1011.6
20260506112546 75 320 0.0 0.0 0.00 0.00 0.00 91 1011.6
20260506112043 75 323 0.0 0.9 0.00 0.00 0.00 91 1011.5
20260506111541 75 322 0.0 0.0 0.00 0.00 0.00 91 1011.6
20260506111038 75 340 0.0 0.0 0.00 0.00 0.00 91 1011.7
20260506110536 75 318 0.0 0.0 0.00 0.00 0.00 91 1011.5
20260506110033 75 321 0.0 0.0 0.00 0.00 0.00 90 1011.8
20260506105528 75 357 0.0 0.9 0.00 0.00 0.00 90 1011.6
20260506105026 75 335 0.0 0.0 0.00 0.00 0.00 90 1011.3
20260506104524 75 324 0.0 0.9 0.00 0.00 0.00 90 1011.3
20260506104022 75 320 0.0 0.0 0.00 0.00 0.00 90 1011.2
20260506103519 75 335 0.0 0.0 0.00 0.00 0.00 91 1011.2
20260506103015 75 308 0.9 1.7 0.00 0.00 0.00 91 1011.5
20260506102514 75 319 0.0 0.0 0.00 0.00 0.00 90 1011.3
20260506102011 75 340 0.0 0.0 0.00 0.00 0.00 90 1011.3
20260506101507 75 355 0.9 0.9 0.00 0.00 0.00 90 1011.2
20260506101004 75 320 0.0 0.0 0.00 0.00 0.00 90 1011.3
20260506100503 75 332 0.0 0.0 0.00 0.00 0.00 90 1011.2
20260506100000 75 324 0.0 0.0 0.00 0.00 0.00 90 1011.1
20260506095459 75 326 0.0 0.0 0.00 0.00 0.00 90 1011.3
20260506094954 75 321 0.0 0.0 0.00 0.00 0.00 90 1011.3
20260506094453 75 322 0.0 0.0 0.00 0.00 0.00 90 1011.3
20260506093950 75 326 0.0 0.9 0.00 0.00 0.00 90 1011.3
20260506093448 75 335 0.0 0.0 0.00 0.00 0.00 90 1011.1
20260506092946 75 326 0.0 0.0 0.00 0.00 0.00 90 1011.5
20260506092444 75 317 0.0 0.0 0.00 0.00 0.00 90 1011.1
20260506091940 75 315 0.9 1.7 0.00 0.00 0.00 90 1010.9
20260506091438 75 324 0.0 0.0 0.00 0.00 0.00 90 1011.2
20260506090935 75 312 0.9 0.9 0.00 0.00 0.00 90 1011.2
20260506090433 75 340 0.9 1.7 0.00 0.00 0.00 90 1011.0
20260506085929 75 298 0.9 0.9 0.00 0.00 0.00 90 1011.0
20260506085426 75 88 1.7 2.6 0.00 0.00 0.00 90 1011.1
20260506084922 75 269 0.0 0.9 0.00 0.00 0.00 90 1011.3
20260506084420 75 324 0.0 0.0 0.00 0.00 0.00 90 1011.2
20260506083915 75 17 1.7 2.6 0.00 0.00 0.00 90 1011.2
20260506083413 75 329 0.0 0.0 0.00 0.00 0.00 90 1011.2
20260506082910 75 319 0.0 0.0 0.00 0.00 0.00 90 1011.1
20260506082407 75 14 0.9 2.6 0.00 0.00 0.00 90 1011.5
20260506081902 76 328 0.9 1.7 0.00 0.00 0.00 90 1011.5
20260506081401 76 309 0.9 0.9 0.00 0.00 0.00 89 1011.5
20260506080858 76 323 0.0 0.0 0.00 0.00 0.00 89 1011.5
20260506080355 76 352 0.0 0.9 0.00 0.00 0.00 89 1011.3
20260506073339 76 320 0.0 0.0 0.00 0.00 0.00 89 1011.5
20260506072835 76 306 0.0 0.0 0.00 0.00 0.00 89 1011.8
20260506072333 76 60 0.9 1.7 0.00 0.00 0.00 89 1011.5
20260506071831 76 318 0.0 0.0 0.00 0.00 0.00 89 1011.7
20260506071329 76 328 0.9 0.9 0.00 0.00 0.00 89 1012.0
20260506070826 76 55 1.7 2.6 0.00 0.00 0.00 89 1011.8
20260506070322 76 19 0.0 0.9 0.00 0.00 0.00 89 1011.7
20260506062300 76 318 3.5 5.2 0.00 0.00 0.00 89 1011.8
20260506061755 76 309 0.0 0.0 0.00 0.00 0.00 89 1011.9
20260506061253 76 19 0.9 0.9 0.00 0.00 0.00 89 1011.7
20260506060751 76 76 0.9 1.7 0.00 0.00 0.00 89 1011.7
20260506060248 76 55 1.7 3.5 0.00 0.00 0.00 89 1011.9
20260506051220 77 319 0.0 0.0 0.00 0.00 0.00 88 1011.9
20260506050718 77 106 0.9 0.9 0.00 0.00 0.00 88 1011.8
20260506050215 77 347 0.0 0.9 0.00 0.00 0.00 88 1011.6
20260506044706 77 330 0.0 0.0 0.00 0.00 0.00 88 1011.6
20260506044203 77 353 0.9 1.7 0.00 0.00 0.00 88 1011.8
20260506043700 77 193 0.9 1.7 0.00 0.00 0.00 87 1011.8
20260506043158 77 329 0.0 0.9 0.00 0.00 0.00 87 1011.8
20260506042657 77 69 0.9 2.6 0.00 0.00 0.00 87 1011.7
20260506042155 77 5 0.0 0.0 0.00 0.00 0.00 87 1011.6
20260506041653 78 6 0.0 0.0 0.00 0.00 0.00 87 1011.6
20260506041149 78 327 0.0 0.9 0.00 0.00 0.00 87 1011.5
20260506040647 78 340 1.7 2.6 0.00 0.00 0.00 87 1011.6
20260506040144 78 324 0.9 0.9 0.00 0.00 0.00 87 1011.5
20260506035641 78 345 0.9 0.9 0.00 0.00 0.00 87 1011.3
20260506035137 78 346 0.9 0.9 0.00 0.00 0.00 87 1011.5
20260506034634 78 6 0.9 1.7 0.00 0.00 0.00 86 1011.2
20260506034131 78 67 1.7 5.2 0.00 0.00 0.00 86 1011.0
20260506033629 78 45 2.6 5.2 0.00 0.00 0.00 86 1011.1
20260506033126 78 320 0.0 0.0 0.00 0.00 0.00 86 1010.8
20260506032623 78 335 0.0 0.9 0.00 0.00 0.00 86 1010.9
20260506032120 78 328 1.7 1.7 0.00 0.00 0.00 86 1010.7
20260506031617 79 6 0.0 0.9 0.00 0.00 0.00 85 1010.6
20260506031113 79 52 0.9 1.7 0.00 0.00 0.00 85 1010.7
20260506030612 79 326 0.9 0.9 0.00 0.00 0.00 84 1010.7
20260506030109 79 67 0.9 1.7 0.00 0.00 0.00 84 1010.4
20260506025606 79 4 0.9 1.7 0.00 0.00 0.00 84 1010.5
20260506025102 80 318 0.9 0.9 0.00 0.00 0.00 83 1010.5
20260506024559 80 334 0.0 0.0 0.00 0.00 0.00 83 1010.2
20260506024055 80 44 1.7 2.6 0.00 0.00 0.00 83 1010.2
20260506023551 80 269 0.9 0.9 0.00 0.00 0.00 82 1010.2
20260506023049 80 318 0.0 0.9 0.00 0.00 0.00 82 1010.0
20260506022547 81 38 2.6 5.2 0.00 0.00 0.00 81 1010.1
20260506022044 81 291 1.7 2.6 0.00 0.00 0.00 81 1010.0
20260506021541 82 337 0.0 0.0 0.00 0.00 0.00 80 1010.1
20260506021038 82 1 0.0 0.9 0.00 0.00 0.00 79 1010.0
20260506020536 82 42 0.9 1.7 0.00 0.00 0.00 78 1010.0
20260506020033 82 339 0.0 0.0 0.00 0.00 0.00 77 1009.8
20260506015531 82 22 0.9 0.9 0.00 0.00 0.00 77 1009.7
20260506015027 83 9 3.5 3.5 0.00 0.00 0.00 76 1009.6
20260506014525 83 344 0.0 0.9 0.00 0.00 0.00 75 1009.6
20260506014021 83 358 0.0 0.9 0.00 0.00 0.00 75 1009.5
20260506013519 83 341 0.0 0.9 0.00 0.00 0.00 75 1009.5
20260506013015 83 23 1.7 2.6 0.00 0.00 0.00 75 1009.4
20260506012511 84 13 2.6 3.5 0.00 0.00 0.00 74 1009.2
20260506012009 84 80 4.3 5.2 0.00 0.00 0.00 74 1009.1
20260506011506 84 9 0.9 1.7 0.00 0.00 0.00 73 1009.2
20260506011002 84 352 1.7 2.6 0.00 0.00 0.00 73 1009.1
20260506010502 84 354 0.0 0.0 0.00 0.00 0.00 73 1008.9
20260506005957 84 332 1.7 1.7 0.00 0.00 0.00 72 1008.9
20260506005455 85 40 1.7 1.7 0.00 0.00 0.00 72 1008.9
20260506004950 84 21 1.7 2.6 0.00 0.00 0.00 72 1008.8
20260506004448 85 32 1.7 2.6 0.00 0.00 0.00 72 1008.7
20260506003944 85 21 0.9 1.7 0.00 0.00 0.00 72 1008.9
20260506003441 85 15 0.0 0.9 0.00 0.00 0.00 71 1008.9
20260506002937 85 337 0.0 0.9 0.00 0.00 0.00 71 1008.9
20260506002433 85 336 0.0 0.9 0.00 0.00 0.00 71 1008.7
20260506001928 86 81 0.9 1.7 0.00 0.00 0.00 70 1008.8
20260506001426 87 325 0.0 0.0 0.00 0.00 0.00 70 1008.7
20260506000923 87 323 0.0 0.0 0.00 0.00 0.00 69 1008.8
20260506000423 87 322 0.0 0.0 0.00 0.00 0.00 68 1008.8
20260505235917 87 320 0.0 0.0 0.00 0.00 0.00 69 1008.5
20260505235415 87 320 0.0 0.0 0.00 0.00 0.00 69 1008.6
20260505234912 86 307 0.9 0.9 0.00 0.00 0.00 69 1008.8
20260505234409 86 300 0.9 1.7 0.00 0.00 0.00 69 1008.7
20260505233906 86 328 0.9 1.7 0.00 0.00 0.00 68 1008.7
20260505233404 87 356 0.0 0.0 0.00 0.00 0.00 69 1008.6
20260505232901 87 319 0.9 1.7 0.00 0.00 0.00 68 1008.6
20260505232359 87 16 0.9 0.9 0.00 0.00 0.00 68 1008.6
20260505231855 87 276 1.7 1.7 0.00 0.00 0.00 67 1008.5
20260505231353 87 327 0.9 1.7 0.00 0.00 0.00 66 1008.5
20260505230851 88 312 0.0 0.9 0.00 0.00 0.00 65 1008.5
20260505230348 89 319 0.9 0.9 0.00 0.00 0.00 64 1008.5
20260505225844 90 357 0.9 1.7 0.00 0.00 0.00 63 1008.7
20260505225342 89 322 0.0 0.0 0.00 0.00 0.00 62 1008.6
20260505224836 90 318 0.0 0.0 0.00 0.00 0.00 64 1008.6
20260505224335 89 302 0.9 0.9 0.00 0.00 0.00 63 1008.8
20260505223832 88 320 0.0 0.9 0.00 0.00 0.00 67 1008.8
20260505223329 87 302 0.9 0.9 0.00 0.00 0.00 67 1008.6
20260505222824 87 316 0.0 0.0 0.00 0.00 0.00 67 1008.6
20260505222320 86 36 0.9 0.9 0.00 0.00 0.00 68 1008.7
20260505221818 86 322 0.0 0.0 0.00 0.00 0.00 71 1008.6
20260505221315 85 327 0.0 0.0 0.00 0.00 0.00 70 1008.6
20260505220812 85 320 0.9 0.9 0.00 0.00 0.00 70 1008.9
20260505220309 86 318 0.9 0.9 0.00 0.00 0.00 70 1008.8
20260505215807 86 322 0.0 0.0 0.00 0.00 0.00 69 1008.9
20260505215305 87 3 0.9 0.9 0.00 0.00 0.00 67 1009.1
20260505214802 87 315 0.9 1.7 0.00 0.00 0.00 68 1008.9
20260505214259 86 295 1.7 2.6 0.00 0.00 0.00 69 1009.1
20260505213756 86 324 0.9 0.9 0.00 0.00 0.00 67 1009.1
20260505213254 85 319 0.9 0.9 0.00 0.00 0.00 68 1009.1
20260505212749 86 347 1.7 1.7 0.00 0.00 0.00 68 1009.2
20260505212247 87 326 1.7 1.7 0.00 0.00 0.00 65 1009.4
20260505211743 86 334 0.9 1.7 0.00 0.00 0.00 67 1009.4
20260505211241 86 286 1.7 2.6 0.00 0.00 0.00 68 1009.4
20260505210737 87 281 0.9 0.9 0.00 0.00 0.00 66 1009.4
20260505210234 86 311 0.9 0.9 0.00 0.00 0.00 67 1009.6
20260505205732 86 322 0.0 0.9 0.00 0.00 0.00 67 1009.7
20260505205230 86 321 0.9 0.9 0.00 0.00 0.00 69 1009.8
20260505204726 86 286 0.9 1.7 0.00 0.00 0.00 68 1010.0
20260505204224 86 334 0.0 0.0 0.00 0.00 0.00 67 1010.1
20260505203721 86 327 0.9 2.6 0.00 0.00 0.00 68 1010.0
20260505203218 86 302 0.9 0.9 0.00 0.00 0.00 70 1010.1
20260505202713 86 4 0.0 0.9 0.00 0.00 0.00 67 1010.4
20260505202210 86 296 0.0 0.9 0.00 0.00 0.00 70 1010.3
20260505201706 86 7 1.7 1.7 0.00 0.00 0.00 69 1010.3
20260505201204 86 323 0.0 0.9 0.00 0.00 0.00 68 1010.3
20260505200702 87 325 0.0 0.0 0.00 0.00 0.00 65 1010.5
20260505200159 86 323 0.0 0.9 0.00 0.00 0.00 68 1010.7
20260505195654 84 284 1.7 1.7 0.00 0.00 0.00 70 1010.4
20260505195152 85 333 0.9 2.6 0.00 0.00 0.00 70 1010.6
20260505194649 84 271 1.7 1.7 0.00 0.00 0.00 71 1010.6
20260505194145 86 196 1.7 2.6 0.00 0.00 0.00 68 1010.7
20260505193642 86 334 0.9 1.7 0.00 0.00 0.00 68 1010.8
20260505193139 85 347 0.9 0.9 0.00 0.00 0.00 71 1010.9
20260505192638 84 317 1.7 1.7 0.00 0.00 0.00 70 1010.8
20260505192134 84 304 0.9 0.9 0.00 0.00 0.00 72 1010.7
20260505191633 85 339 1.7 1.7 0.00 0.00 0.00 70 1010.9